Volver al catálogo

SL-8 DEB

ActivoUNKNOWN
NORAD 1634·DEBRIS·🇷🇺 Russia

Lanzado Mar 15, 1965 desde Baikonur Cosmodrome

Loading…

Próximos Pases (próximas 24 horas)

TLE

ActualizadoSource: Space-Track

Época: Sep 14, 2026, 03:47 UTC

1 01634U 65020ED  26257.15810314 -.00000018  00000-0  13556-3 0  9995
2 01634  56.1551 181.2563 0852725 199.8279 156.7512 12.48579961773599

Sigue SL-8 DEB en tiempo real con AllMySat

Download on the App Store